EW9945 Weather Reports


Display with metric or nautical units.
time (UTC)temp
F
wind
direction
speed
MPH
gust
MPH
rain 1hr
in
rain 24hr
in
rain mn
in
humidity
%
barometer
mb
20200330013520 49 107 3.0 4.0 0.00 0.22 0.21 94 1010.8
20200330013048 49 107 0.0 1.0 0.00 0.22 0.21 94 1010.9
20200330012525 49 107 0.0 2.0 0.00 0.22 0.21 94 1010.8
20200330012023 49 107 0.0 2.0 0.00 0.22 0.21 94 1010.7
20200330011529 49 107 0.0 3.0 0.00 0.22 0.21 94 1010.5
20200330011020 49 107 0.0 4.0 0.00 0.22 0.21 94 1010.3
20200330010519 49 127 1.0 4.0 0.00 0.22 0.21 94 1010.4
20200330005519 49 132 1.0 3.0 0.00 0.22 0.21 94 1009.9
20200330005025 49 132 0.0 5.0 0.00 0.22 0.21 94 1009.7
20200330004550 49 132 1.0 6.0 0.00 0.22 0.21 94 1009.5
20200330004019 49 132 2.0 6.0 0.00 0.22 0.21 94 1009.4
20200330003519 49 226 1.0 5.0 0.00 0.22 0.21 94 1009.4
20200330003048 49 247 2.0 5.0 0.00 0.22 0.21 94 1009.4
20200330002519 49 247 0.0 5.0 0.00 0.22 0.21 94 1009.2
20200330002018 49 188 1.0 5.0 0.00 0.22 0.21 94 1009.1
20200330001553 49 107 1.0 7.0 0.00 0.22 0.21 94 1009.1
20200330001019 49 344 2.0 7.0 0.00 0.22 0.21 94 1009.0
20200330000523 49 306 2.0 6.0 0.00 0.23 0.21 94 1008.7
20200329235522 49 14 2.0 6.0 0.00 0.23 0.21 94 1008.3
20200329235019 49 195 1.0 6.0 0.00 0.23 0.21 94 1008.1
20200329234613 49 21 1.0 6.0 0.00 0.23 0.21 94 1008.0
20200329234019 49 106 1.0 6.0 0.00 0.23 0.21 93 1008.1
20200329233537 50 148 1.0 7.0 0.00 0.23 0.21 93 1008.0
20200329233048 50 210 2.0 7.0 0.00 0.23 0.21 93 1008.0
20200329232520 50 223 0.0 10.0 0.00 0.23 0.21 93 1007.9
20200329232021 50 170 2.0 10.0 0.00 0.23 0.21 93 1007.7
20200329231525 50 182 2.0 8.0 0.00 0.23 0.21 93 1007.8
20200329231017 50 207 1.0 10.0 0.00 0.23 0.21 93 1007.6
20200329230516 50 248 3.0 10.0 0.00 0.23 0.21 93 1007.6
20200329225519 50 67 2.0 4.0 0.00 0.23 0.21 93 1007.5
20200329225019 50 148 1.0 5.0 0.00 0.23 0.21 93 1007.5
20200329224520 50 144 2.0 5.0 0.00 0.23 0.21 93 1007.5
20200329224019 50 297 1.0 3.0 0.00 0.23 0.21 93 1007.4
20200329223519 49 304 0.0 5.0 0.00 0.23 0.21 93 1007.3
20200329223118 49 291 3.0 6.0 0.00 0.23 0.21 93 1007.3
20200329222518 49 191 0.0 6.0 0.00 0.23 0.21 93 1007.1
20200329222018 49 153 1.0 6.0 0.00 0.23 0.21 93 1007.3
20200329221534 49 145 2.0 8.0 0.00 0.23 0.21 93 1007.3
20200329221023 49 138 1.0 6.0 0.00 0.23 0.21 93 1007.3
20200329220518 49 245 2.0 6.0 0.00 0.23 0.21 93 1007.4
20200329215518 49 105 3.0 8.0 0.00 0.23 0.21 93 1007.1
20200329215017 49 90 0.0 13.0 0.00 0.23 0.21 93 1007.1
20200329214557 49 114 4.0 13.0 0.00 0.23 0.21 93 1007.1
20200329214019 49 137 7.0 11.0 0.00 0.23 0.21 93 1007.2
20200329213518 49 138 4.0 13.0 0.00 0.23 0.21 93 1007.3
20200329213019 49 140 7.0 13.0 0.00 0.23 0.21 93 1007.6
20200329212522 49 133 6.0 14.0 0.00 0.23 0.21 93 1007.5
20200329212018 49 116 4.0 7.0 0.00 0.23 0.21 93 1007.5
20200329211538 49 178 1.0 9.0 0.00 0.23 0.21 92 1007.8
20200329211017 49 142 4.0 9.0 0.00 0.23 0.21 92 1007.7
20200329210519 49 178 5.0 10.0 0.00 0.23 0.21 92 1007.5
20200329205515 50 30 3.0 6.0 0.00 0.23 0.21 91 1007.3
20200329205015 50 298 1.0 6.0 0.00 0.23 0.21 91 1007.5
20200329204515 50 9 1.0 15.0 0.00 0.23 0.21 91 1007.3
20200329204016 50 160 4.0 16.0 0.00 0.23 0.21 91 1006.9
20200329203518 50 117 7.0 16.0 0.00 0.23 0.21 91 1006.3
20200329203050 50 161 7.0 15.0 0.00 0.23 0.21 91 1006.0
20200329202529 50 157 9.0 15.0 0.00 0.23 0.21 91 1005.9
20200329202017 50 153 7.0 15.0 0.00 0.23 0.21 91 1006.2
20200329201610 50 127 7.0 20.0 0.00 0.23 0.21 91 1006.4
20200329201013 50 165 12.0 20.0 0.00 0.23 0.21 90 1006.3
20200329200513 50 180 8.0 16.0 0.00 0.23 0.21 90 1006.2
20200329195513 51 209 4.0 8.0 0.00 0.23 0.21 90 1005.8
20200329195012 51 165 4.0 11.0 0.00 0.23 0.21 90 1005.9
20200329194606 51 140 4.0 22.0 0.00 0.23 0.21 91 1006.0
20200329194013 51 303 4.0 22.0 0.00 0.23 0.21 90 1006.0
20200329193513 51 206 4.0 14.0 0.00 0.23 0.21 91 1005.9
20200329193013 51 153 5.0 23.0 0.00 0.23 0.21 91 1006.0
20200329192513 51 132 12.0 23.0 0.00 0.23 0.21 89 1005.9
20200329192012 51 109 4.0 15.0 0.00 0.23 0.21 90 1006.0
20200329191534 51 224 4.0 8.0 0.00 0.23 0.21 90 1006.1
20200329191009 51 292 2.0 8.0 0.00 0.23 0.21 91 1006.0
20200329190513 50 127 1.0 18.0 0.00 0.23 0.21 92 1005.9
20200329185010 50 157 7.0 15.0 0.00 0.23 0.21 92 1006.2
20200329184512 49 189 7.0 15.0 0.00 0.23 0.21 91 1006.5
20200329184005 50 145 7.0 16.0 0.00 0.23 0.21 91 1006.5
20200329183509 50 98 6.0 17.0 0.00 0.23 0.21 91 1006.6
20200329183010 49 182 4.0 17.0 0.00 0.23 0.21 92 1006.8
20200329182506 49 163 5.0 17.0 0.00 0.23 0.21 92 1007.0
20200329182011 49 150 8.0 22.0 0.00 0.23 0.21 92 1007.0
20200329181503 49 129 9.0 26.0 0.00 0.23 0.21 92 1007.0
20200329181001 49 170 6.0 26.0 0.00 0.23 0.21 92 1007.3
20200329180601 49 123 6.0 14.0 0.00 0.24 0.21 92 1007.4
20200329175605 49 134 7.0 12.0 0.00 0.24 0.21 92 1007.8
20200329175102 49 136 6.0 21.0 0.00 0.24 0.21 92 1007.8
20200329175002 49 113 7.0 21.0 0.00 0.24 0.21 92 1007.9
20200329174715 49 160 7.0 21.0 0.00 0.24 0.21 92 1007.8
20200329174104 49 153 4.0 10.0 0.00 0.24 0.21 93 1008.1
20200329173559 49 121 2.0 10.0 0.00 0.24 0.21 93 1008.1
20200329173155 48 112 3.0 19.0 0.00 0.24 0.21 93 1008.0
20200329172557 48 127 8.0 20.0 0.00 0.24 0.21 93 1008.0
20200329172104 48 184 6.0 20.0 0.00 0.24 0.21 94 1008.0
20200329171709 48 102 7.0 21.0 0.00 0.24 0.21 94 1008.2
20200329171056 48 164 8.0 21.0 0.00 0.24 0.21 94 1008.2
20200329170555 48 100 1.0 12.0 0.00 0.30 0.21 94 1008.3
20200329165556 47 153 4.0 19.0 0.01 0.30 0.21 94 1008.6
20200329165058 47 128 13.0 25.0 0.01 0.30 0.21 94 1008.5
20200329164720 47 112 17.0 25.0 0.01 0.30 0.21 94 1008.3
20200329164055 47 121 16.0 25.0 0.01 0.30 0.21 94 1008.3
20200329163630 47 135 10.0 19.0 0.01 0.30 0.21 94 1008.7
20200329163139 47 132 12.0 20.0 0.01 0.30 0.21 94 1008.7
20200329162607 47 123 14.0 27.0 0.01 0.30 0.21 94 1008.7
20200329162055 47 150 12.0 27.0 0.01 0.30 0.21 93 1008.8
20200329161727 47 131 14.0 28.0 0.01 0.30 0.21 94 1008.7
20200329161054 47 144 10.0 34.0 0.01 0.30 0.21 93 1008.7
20200329160605 47 123 17.0 34.0 0.01 0.43 0.21 93 1009.0
20200329155551 47 115 11.0 28.0 0.00 0.42 0.20 93 1008.8
20200329155049 47 115 11.0 22.0 0.00 0.42 0.20 93 1009.1
20200329154641 47 120 9.0 17.0 0.00 0.42 0.20 94 1009.2
20200329154051 47 120 6.0 15.0 0.00 0.42 0.20 93 1009.3
20200329153547 47 149 6.0 15.0 0.00 0.42 0.20 93 1009.7
20200329153207 47 161 7.0 12.0 0.00 0.42 0.20 93 1009.9
20200329152600 47 142 7.0 15.0 0.00 0.42 0.20 94 1010.3
20200329152100 47 103 6.0 15.0 0.00 0.42 0.20 94 1010.1
20200329151654 47 147 2.0 9.0 0.00 0.42 0.20 94 1010.2
20200329151045 47 211 4.0 9.0 0.00 0.42 0.20 94 1010.4
20200329150545 47 127 4.0 10.0 0.00 0.56 0.20 94 1010.4
20200329145551 47 119 4.0 16.0 0.00 0.56 0.20 94 1010.9
20200329145106 47 121 8.0 16.0 0.00 0.56 0.20 94 1010.7
20200329144621 47 155 6.0 18.0 0.00 0.56 0.20 94 1010.6
20200329144045 47 151 6.0 18.0 0.00 0.56 0.20 94 1010.3
20200329143551 47 132 10.0 22.0 0.00 0.56 0.20 93 1010.4
20200329143054 47 153 10.0 22.0 0.00 0.56 0.20 93 1010.6
20200329142605 47 147 7.0 15.0 0.00 0.56 0.20 93 1010.6
20200329142043 47 134 7.0 13.0 0.00 0.56 0.20 93 1010.8
20200329141626 46 138 6.0 13.0 0.00 0.56 0.20 93 1010.9
20200329141046 46 160 7.0 16.0 0.00 0.56 0.20 93 1010.8
20200329140542 46 144 10.0 18.0 0.00 0.64 0.20 93 1010.9
20200329135542 46 137 7.0 16.0 0.00 0.64 0.20 93 1011.5
20200329135043 46 142 7.0 16.0 0.00 0.64 0.20 93 1011.8
20200329134742 46 145 3.0 9.0 0.00 0.64 0.20 93 1011.9
20200329134041 46 72 3.0 17.0 0.00 0.64 0.20 93 1011.9
20200329133541 46 136 9.0 17.0 0.00 0.64 0.20 93 1011.9
20200329133111 46 140 5.0 14.0 0.00 0.64 0.20 93 1012.0
20200329132541 47 150 6.0 11.0 0.00 0.64 0.20 93 1012.0
20200329132041 47 112 5.0 11.0 0.00 0.64 0.20 93 1012.2
20200329131557 47 163 4.0 13.0 0.00 0.64 0.20 93 1012.1
20200329131040 47 120 7.0 17.0 0.00 0.64 0.20 93 1011.9
20200329130540 47 154 6.0 13.0 0.00 0.76 0.20 93 1012.2
20200329125539 47 146 1.0 7.0 0.00 0.76 0.20 94 1012.3
20200329125039 47 165 2.0 11.0 0.00 0.76 0.20 94 1012.3
20200329124639 47 167 4.0 14.0 0.03 0.76 0.20 94 1011.9
20200329124039 46 99 9.0 14.0 0.04 0.76 0.20 94 1011.5
20200329123600 46 141 8.0 12.0 0.04 0.76 0.20 94 1012.0
20200329123105 46 128 5.0 10.0 0.05 0.76 0.20 95 1012.0
20200329122537 46 84 0.0 5.0 0.06 0.76 0.20 95 1011.9
20200329122036 46 84 1.0 5.0 0.06 0.76 0.20 95 1012.1
20200329121623 46 84 0.0 3.0 0.07 0.76 0.20 95 1012.0
20200329121050 46 84 1.0 5.0 0.10 0.76 0.20 95 1012.1
20200329120534 45 84 1.0 11.0 0.10 0.82 0.20 95 1012.0
20200329115537 45 105 12.0 17.0 0.12 0.82 0.20 95 1012.2
20200329115043 45 121 11.0 17.0 0.13 0.82 0.20 95 1012.7
20200329114609 45 298 2.0 12.0 0.12 0.81 0.19 95 1013.4
20200329114035 45 168 8.0 12.0 0.10 0.78 0.16 95 1013.1
20200329113535 45 267 4.0 11.0 0.10 0.78 0.16 95 1013.4
20200329113154 45 106 6.0 9.0 0.10 0.78 0.16 96 1012.1
20200329112538 45 269 4.0 8.0 0.09 0.77 0.15 95 1013.1
20200329112035 44 138 3.0 5.0 0.09 0.76 0.14 95 1012.3
20200329111614 44 217 1.0 3.0 0.09 0.76 0.14 95 1012.9
20200329111034 44 128 1.0 9.0 0.06 0.73 0.11 95 1012.8
20200329110534 44 129 1.0 12.0 0.06 0.81 0.10 95 1013.0
20200329105529 44 167 2.0 5.0 0.06 0.79 0.08 96 1013.4
20200329105029 44 172 0.0 9.0 0.05 0.78 0.07 96 1013.4
20200329104541 44 145 5.0 9.0 0.05 0.78 0.07 96 1013.5
20200329104031 44 134 6.0 9.0 0.04 0.77 0.06 96 1013.4
20200329103531 44 28 0.0 6.0 0.04 0.77 0.06 96 1013.8
20200329103055 44 292 2.0 6.0 0.04 0.77 0.06 96 1013.6
20200329102529 44 247 0.0 6.0 0.04 0.77 0.06 96 1013.9
20200329102028 44 159 2.0 6.0 0.03 0.76 0.05 96 1013.6
20200329101532 44 161 1.0 5.0 0.04 0.76 0.05 95 1013.3
20200329101028 44 161 4.0 5.0 0.04 0.76 0.05 95 1013.0
20200329100527 44 170 2.0 3.0 0.04 0.76 0.05 95 1012.5
20200329095528 44 221 0.0 3.0 0.01 0.73 0.02 96 1013.0
20200329095028 44 165 0.0 5.0 0.01 0.73 0.02 96 1013.7
20200329094535 44 165 0.0 5.0 0.01 0.73 0.02 96 1013.1
20200329094028 44 165 0.0 0.0 0.01 0.73 0.02 95 1012.8
20200329093535 44 165 0.0 2.0 0.01 0.73 0.02 95 1012.7
20200329093111 44 165 1.0 2.0 0.01 0.73 0.02 95 1012.2
20200329092530 44 165 0.0 2.0 0.02 0.73 0.02 95 1012.4
20200329092026 44 165 0.0 2.0 0.02 0.73 0.02 95 1012.6
20200329091616 44 165 0.0 5.0 0.02 0.73 0.02 95 1012.4
20200329091029 44 165 1.0 7.0 0.01 0.72 0.01 95 1012.9
20200329090526 44 109 3.0 7.0 0.01 0.72 0.01 95 1012.5
20200329085525 44 113 4.0 9.0 0.01 0.72 0.01 95 1012.5
20200329085025 44 111 5.0 9.0 0.01 0.72 0.01 95 1012.7
20200329084546 45 129 4.0 8.0 0.01 0.72 0.01 95 1012.9
20200329084025 45 124 2.0 7.0 0.01 0.72 0.01 95 1013.0
20200329083525 45 198 3.0 7.0 0.01 0.72 0.01 95 1013.0
20200329083030 45 148 3.0 8.0 0.01 0.72 0.01 95 1012.9
20200329082524 45 164 1.0 5.0 0.01 0.72 0.01 95 1012.8
20200329082024 45 210 0.0 4.0 0.00 0.71 0.00 95 1013.0
20200329081545 45 210 2.0 5.0 0.00 0.71 0.00 95 1012.8
20200329081041 45 148 2.0 5.0 0.00 0.71 0.00 95 1012.1
20200329080525 45 148 0.0 5.0 0.00 0.71 0.00 95 1012.3
20200329075526 45 145 4.0 15.0 0.00 0.71 0.00 95 1012.1
20200329075025 45 114 9.0 15.0 0.00 0.71 0.00 95 1011.8
20200329074603 45 137 10.0 15.0 0.00 0.71 0.00 95 1012.0
20200329074023 45 149 5.0 11.0 0.00 0.71 0.00 95 1012.3
20200329073527 45 123 4.0 11.0 0.00 0.71 0.00 95 1012.6
20200329073044 45 173 3.0 10.0 0.00 0.71 0.00 95 1012.9
20200329072520 45 146 6.0 10.0 0.00 0.71 0.00 95 1012.5
20200329072039 45 151 2.0 11.0 0.00 0.71 0.00 95 1012.5
20200329071544 45 149 6.0 9.0 0.00 0.71 0.00 95 1012.3
20200329071039 45 154 1.0 11.0 0.00 0.71 0.00 95 1012.6
20200329070523 45 162 5.0 15.0 0.00 0.71 0.00 95 1012.7
20200329065514 45 140 3.0 6.0 0.00 0.71 0.00 95 1012.7
20200329065013 45 132 0.0 2.0 0.00 0.71 0.00 95 1013.0
20200329064519 45 132 0.0 2.0 0.00 0.71 0.00 95 1013.2
20200329064012 45 132 0.0 2.0 0.00 0.71 0.00 95 1013.3
20200329063517 45 132 0.0 0.0 0.00 0.71 0.00 95 1013.5
20200329062511 45 132 0.0 9.0 0.00 0.71 0.00 95 1013.3
20200329062010 45 132 2.0 9.0 0.00 0.71 0.00 95 1013.2
20200329061509 45 119 2.0 8.0 0.00 0.71 0.00 95 1013.5
20200329061102 45 188 1.0 4.0 0.00 0.71 0.00 95 1013.8
20200329060509 45 158 1.0 6.0 0.00 0.71 0.00 95 1013.4
20200329055509 45 161 0.0 3.0 0.00 0.71 0.00 96 1013.6
20200329055008 44 161 0.0 5.0 0.00 0.71 0.00 96 1013.6
20200329054514 44 161 2.0 5.0 0.00 0.71 0.00 96 1013.5
20200329054007 44 142 2.0 5.0 0.00 0.71 0.00 96 1013.6
20200329053514 44 124 2.0 5.0 0.00 0.71 0.00 96 1013.6
20200329053014 44 123 1.0 4.0 0.00 0.71 0.00 96 1013.7
20200329052506 44 121 0.0 2.0 0.00 0.71 0.00 96 1014.1
20200329052009 44 121 0.0 2.0 0.00 0.71 0.00 96 1013.9
20200329051506 44 121 0.0 2.0 0.00 0.71 0.00 96 1013.9
20200329051009 44 121 0.0 8.0 0.00 0.71 0.00 95 1014.2
20200329050506 44 121 1.0 8.0 0.00 0.71 0.00 95 1014.1
20200329045503 44 136 1.0 6.0 0.00 0.71 0.00 95 1014.1
20200329045006 44 137 0.0 7.0 0.00 0.71 0.00 95 1014.2
20200329044505 44 173 3.0 7.0 0.00 0.71 0.00 95 1014.3
20200329044004 44 136 2.0 4.0 0.00 0.71 0.00 95 1014.1
20200329043504 44 136 0.0 3.0 0.00 0.71 0.00 95 1014.3
20200329043027 44 136 0.0 2.0 0.00 0.71 0.00 95 1014.5
20200329042501 44 136 0.0 4.0 0.00 0.71 0.00 95 1014.4
20200329041648 44 136 1.0 8.0 0.00 0.71 0.00 95 1014.2
20200329041058 44 113 3.0 13.0 0.00 0.71 0.00 95 1014.3
20200329040604 44 129 7.0 13.0 0.00 0.71 0.71 95 1014.4
20200329040112 44 165 2.0 7.0 0.01 0.71 0.71 95 1014.6
20200329035603 44 170 1.0 10.0 0.01 0.71 0.71 95 1014.7
20200329035102 44 159 1.0 11.0 0.01 0.71 0.71 95 1014.6
20200329034641 44 117 5.0 13.0 0.01 0.71 0.71 95 1014.3
20200329034100 44 136 6.0 14.0 0.01 0.71 0.71 95 1014.4
20200329033606 44 109 7.0 14.0 0.01 0.71 0.71 95 1014.6
20200329033223 44 135 6.0 14.0 0.01 0.71 0.71 95 1014.7
20200329032604 44 144 6.0 12.0 0.01 0.71 0.71 94 1014.4
20200329032059 44 128 6.0 11.0 0.01 0.71 0.71 94 1014.5
20200329031757 44 121 3.0 5.0 0.01 0.71 0.71 94 1014.5
20200329031059 44 135 1.0 4.0 0.01 0.71 0.71 94 1014.6
20200329030604 44 135 0.0 3.0 0.01 0.71 0.71 94 1014.7
20200329030126 44 135 2.0 7.0 0.00 0.70 0.70 94 1014.8
20200329025557 44 135 1.0 7.0 0.00 0.70 0.70 94 1014.7
20200329025056 44 128 1.0 5.0 0.00 0.70 0.70 94 1014.9
20200329024650 44 165 1.0 3.0 0.00 0.70 0.70 94 1014.9
20200329024103 44 165 0.0 1.0 0.00 0.70 0.70 94 1014.8
20200329023557 44 165 0.0 4.0 0.00 0.70 0.70 94 1014.8
20200329023116 44 165 2.0 11.0 0.00 0.70 0.70 94 1014.7
20200329022603 44 155 3.0 13.0 0.00 0.70 0.70 94 1014.4
20200329022106 44 123 8.0 13.0 0.00 0.70 0.70 94 1014.2
20200329021653 44 121 6.0 9.0 0.00 0.70 0.70 94 1014.2
20200329021056 44 119 7.0 10.0 0.00 0.70 0.70 94 1014.6
20200329020556 44 140 2.0 5.0 0.00 0.70 0.70 94 1014.7
20200329020148 44 130 2.0 10.0 0.00 0.70 0.70 94 1014.2
20200329015556 44 130 2.0 10.0 0.00 0.70 0.70 94 1014.3
20200329015057 44 130 5.0 10.0 0.00 0.70 0.70 94 1014.1
20200329014646 44 155 6.0 13.0 0.00 0.70 0.70 94 1014.1
20200329014056 44 122 8.0 14.0 0.00 0.70 0.70 94 1014.2